Погода в Форт-Лодердейл

США     26°08′46″N   80°08′29″W
темп.,
°C
ветер,
м/с
пор.,
м/с
влажн.,
%
обл.,
%
осадки,
мм/ч
давл.,
гПа
погр.,
м
2 марта, вт
вт201:00+25зюз117046 0.0 101992
04:00+24зюз127560 0.0 1017119
07:00+23сз127880 0.0 1018112
10:00+26зюз116461 0.0 1019722
13:00+29ююв335159 0.1 10181343
16:00+29юв555381 0.1 10151076
19:00+26ююв576152 0.1 1016648
22:00+25юз346475 0.0 1017768
3 марта, ср
ср301:00+24юз346941 0.0 1016614
04:00+23ююз487052 0.0 1014673
07:00+22зюз477674 0.0 1015590
10:00+26юз56580 0.0 10161012
13:00+30зюз58390 0.0 10151915
16:00+31з79360 0.0 10132105
19:00+26з7106135 0.0 10141046
22:00+24зсз587138 0.0 1015792
4 марта, чт
чт401:00+21зсз577347 0.0 1015567
04:00+20сз467544 0.0 1015557
07:00+19ссз467537 0.0 1016478
10:00+23с45600 0.0 1017926
13:00+26с33399 0.0 10151890
16:00+26с544220 0.1 10141754
19:00+23ссв565554 0.2 10151095
22:00+21ссв576328 0.2 1016722
5 марта, пт
пт501:00+20с466422 0.3 1015585
04:00+19ссз46670 0.0 1015398
07:00+19с35660 0.0 1016307
10:00+23всв44470 0.0 10171429
13:00+25в53427 0.0 10161737
16:00+24в555083 0.1 10141273
19:00+22в565561 0.1 10151125
22:00+22в565495 0.0 10161228
6 марта, сб
сб601:00+22вюв575694 0.0 10151093
04:00+22вюв5659100 0.0 10141059
07:00+21вюв81067100 0.0 1013960
10:00+23юв8106284 0.4 10121187
13:00+23ююз9146787 4.9 10101270
16:00+25з8125688 6.3 10081544
19:00+21сз697356 7.6 1010839
22:00+19с6107441 0.0 1012745